Weather History for Nakika, MS

Change the Weather History Date:

Saturday, May 31, 2014

  Actual Average Record
Temperature  
Mean Temperature 74 °F -  
Max Temperature 78 °F - - ()
Min Temperature 71 °F - - ()
Cooling Degree Days 10    
Growing Degree Days 24 (Base 50)    
Moisture  
Dew Point 71 °F    
Average Humidity 85    
Maximum Humidity 100    
Minimum Humidity 78    
Precipitation  
Precipitation 0.31 in - - ()
Sea Level Pressure  
Sea Level Pressure 29.96 in    
Wind  
Wind Speed 16 mph (SE)    
Max Wind Speed 25 mph    
Max Gust Speed 34 mph    
Visibility 9 miles    
Events      
T = Trace of Precipitation, MM = Missing Value Source: NWS Daily Summary

Daily Weather History Graph

Daily Weather History Graph

Search for Another Location

Airport:

Trip Planner

Search our weather history database for the weather conditions in past years. The results will help you decide how hot, cold, wet, or windy it might be!

Date:

Astronomy

May. 31, 2014 Rise Set
Actual Time 5:56 AM CDT 7:45 PM CDT
Civil Twilight 5:29 AM CDT 8:12 PM CDT
Nautical Twilight 4:57 AM CDT 8:44 PM CDT
Astronomical Twilight 4:23 AM CDT 9:18 PM CDT
Moon 8:27 AM CDT (5/31) 10:11 PM CDT (5/31)
Length of Visible Light 14h 42m
Length of Day
13h 49m
Waxing Crescent, 8% of the Moon is Illuminated
May 31
Waxing Crescent
Jun 5
First Quarter
Jun 12
Full
Jun 19
Last Quarter
Jun 27
New

Hourly Weather History & Observations

Time (CDT) Temp. Dew Point Humidity Pressure Visibility Wind Dir Wind Speed Gust Speed Precip Events Conditions
12:00 AM 77.0 °F 71.6 °F 83% 29.97 in 10.0 mi ESE 17.3 mph - N/A   Mostly Cloudy
12:20 AM 77.0 °F 71.6 °F 83% 29.97 in 10.0 mi ESE 18.4 mph - N/A   Mostly Cloudy
12:40 AM 77.0 °F 71.6 °F 83% 29.97 in 10.0 mi SE 21.9 mph - N/A   Overcast
1:00 AM 77.0 °F 69.8 °F 78% 29.96 in 10.0 mi SE 20.7 mph 26.5 mph N/A   Overcast
1:20 AM 77.0 °F 71.6 °F 83% 29.95 in 10.0 mi SE 19.6 mph - N/A   Mostly Cloudy
1:40 AM 77.0 °F 71.6 °F 83% 29.95 in 10.0 mi SE 18.4 mph - N/A   Overcast
2:00 AM 77.0 °F 71.6 °F 83% 29.94 in 10.0 mi ESE 21.9 mph - N/A   Mostly Cloudy
2:20 AM 77.0 °F 71.6 °F 83% 29.94 in 10.0 mi ESE 24.2 mph - N/A   Scattered Clouds
2:40 AM 78.8 °F 71.6 °F 78% 29.95 in 10.0 mi SE 21.9 mph - N/A   Mostly Cloudy
3:00 AM 77.0 °F 71.6 °F 83% 29.95 in 10.0 mi SE 24.2 mph - N/A   Overcast
3:20 AM 77.0 °F 73.4 °F 89% 29.94 in 10.0 mi ESE 23.0 mph - N/A   Overcast
3:40 AM 77.0 °F 73.4 °F 89% 29.93 in 10.0 mi ESE 21.9 mph - N/A   Mostly Cloudy
4:00 AM 77.0 °F 73.4 °F 89% 29.94 in 10.0 mi ESE 21.9 mph - N/A   Overcast
4:20 AM 77.0 °F 73.4 °F 89% 29.94 in 10.0 mi SE 18.4 mph - N/A   Overcast
4:40 AM 77.0 °F 71.6 °F 83% 29.95 in 10.0 mi SSE 10.4 mph 20.7 mph N/A   Overcast
5:00 AM 75.2 °F 69.8 °F 83% 29.94 in 6.0 mi Variable 6.9 mph 26.5 mph N/A   Haze
5:20 AM 73.4 °F 68.0 °F 83% 29.95 in 5.0 mi South 10.4 mph 17.3 mph N/A   Haze
5:40 AM 73.4 °F 69.8 °F 88% 29.94 in 6.0 mi SSE 9.2 mph - N/A   Overcast
6:00 AM 73.4 °F 71.6 °F 94% 29.94 in 5.0 mi ESE 15.0 mph - 0.02 in   Mostly Cloudy
6:20 AM 73.4 °F 69.8 °F 88% 29.94 in 9.0 mi ESE 19.6 mph - N/A   Mostly Cloudy
6:40 AM 73.4 °F 69.8 °F 88% 29.94 in 9.0 mi East 17.3 mph - N/A   Mostly Cloudy
7:00 AM 75.2 °F 71.6 °F 89% 29.95 in 10.0 mi East 16.1 mph - N/A   Mostly Cloudy
7:20 AM 75.2 °F 71.6 °F 89% 29.96 in 8.0 mi ESE 18.4 mph - N/A   Mostly Cloudy
7:40 AM 75.2 °F 71.6 °F 89% 29.96 in 8.0 mi East 16.1 mph - N/A   Scattered Clouds
8:00 AM 75.2 °F 71.6 °F 89% 29.97 in 10.0 mi East 21.9 mph - 0.02 in   Mostly Cloudy
8:20 AM 77.0 °F 71.6 °F 83% 29.96 in 10.0 mi East 25.3 mph - N/A   Mostly Cloudy
8:40 AM 75.2 °F 71.6 °F 89% 29.96 in 1.8 mi East 24.2 mph 29.9 mph N/A   Scattered Clouds
9:00 AM 77.0 °F 71.6 °F 83% 29.97 in 9.0 mi East 20.7 mph - N/A   Partly Cloudy
9:20 AM 77.0 °F 71.6 °F 83% 29.99 in 10.0 mi SE 21.9 mph - N/A   Mostly Cloudy
9:40 AM 75.2 °F 69.8 °F 83% 29.98 in 2.0 mi Variable 13.8 mph 34.5 mph N/A   Haze
10:00 AM 71.6 °F 69.8 °F 94% 29.99 in 4.0 mi Variable 20.7 mph 31.1 mph 0.01 in   Overcast
10:20 AM 71.6 °F 69.8 °F 94% 29.99 in 1.5 mi Variable 3.5 mph 12.7 mph N/A   Overcast
10:40 AM 71.6 °F 69.8 °F 94% 29.99 in 3.0 mi Variable 5.8 mph 15.0 mph N/A   Mostly Cloudy
11:00 AM 71.6 °F 71.6 °F 100% 30.00 in 1.5 mi South 8.1 mph 17.3 mph 0.18 in   Overcast
11:20 AM 71.6 °F 69.8 °F 94% 30.00 in 4.0 mi Variable 9.2 mph 23.0 mph N/A   Mostly Cloudy
11:40 AM 71.6 °F 69.8 °F 94% 30.00 in 6.0 mi SSW 15.0 mph 21.9 mph N/A   Clear
12:00 PM 73.4 °F 69.8 °F 88% 30.00 in 8.0 mi Variable 9.2 mph 23.0 mph 0.07 in   Clear
12:20 PM 73.4 °F 71.6 °F 94% 30.00 in 10.0 mi Variable 8.1 mph 25.3 mph N/A   Clear
12:40 PM 75.2 °F 71.6 °F 89% 29.98 in 10.0 mi SSW 12.7 mph 23.0 mph N/A   Partly Cloudy
1:00 PM 75.2 °F 69.8 °F 83% 29.96 in 10.0 mi SSW 15.0 mph 24.2 mph 0.01 in   Clear
1:20 PM 75.2 °F 69.8 °F 83% 29.96 in 10.0 mi Variable 8.1 mph 19.6 mph N/A   Clear
1:40 PM 75.2 °F 69.8 °F 83% 29.96 in 10.0 mi Variable 10.4 mph 21.9 mph N/A   Clear
2:00 PM 77.0 °F 69.8 °F 78% 29.96 in 10.0 mi Variable 6.9 mph 18.4 mph N/A   Clear
2:20 PM 75.2 °F 69.8 °F 83% 29.95 in 10.0 mi Variable 4.6 mph 12.7 mph N/A   Clear
2:40 PM 75.2 °F 71.6 °F 89% 29.95 in 10.0 mi Variable 5.8 mph 13.8 mph N/A   Clear
3:00 PM 75.2 °F 71.6 °F 89% 29.95 in 10.0 mi Variable 6.9 mph 17.3 mph N/A   Clear
3:20 PM 75.2 °F 71.6 °F 89% 29.95 in 10.0 mi Variable 6.9 mph 15.0 mph N/A   Clear
3:40 PM 77.0 °F 69.8 °F 78% 29.95 in 10.0 mi SSE 9.2 mph - N/A   Clear
4:00 PM 77.0 °F 71.6 °F 83% 29.95 in 10.0 mi SE 10.4 mph - N/A   Clear
4:20 PM 77.0 °F 71.6 °F 83% 29.95 in 10.0 mi SE 12.7 mph - N/A   Clear
4:40 PM 77.0 °F 69.8 °F 78% 29.95 in 10.0 mi SSE 10.4 mph 16.1 mph N/A   Scattered Clouds
5:00 PM 77.0 °F 69.8 °F 78% 29.95 in 10.0 mi SSE 11.5 mph - N/A   Mostly Cloudy
5:20 PM 77.0 °F 69.8 °F 78% 29.94 in 10.0 mi SSE 10.4 mph - N/A   Partly Cloudy
5:40 PM 77.0 °F 71.6 °F 83% 29.94 in 10.0 mi SE 10.4 mph - N/A   Clear
6:00 PM 75.2 °F 69.8 °F 83% 29.94 in 10.0 mi SE 9.2 mph - N/A   Clear
6:20 PM 77.0 °F 69.8 °F 78% 29.94 in 10.0 mi SE 13.8 mph - N/A   Clear
6:40 PM 75.2 °F 71.6 °F 89% 29.94 in 10.0 mi SE 13.8 mph - N/A   Scattered Clouds
7:20 PM 75.2 °F 71.6 °F 89% 29.94 in 10.0 mi SSE 9.2 mph 17.3 mph N/A   Partly Cloudy
7:40 PM 75.2 °F 69.8 °F 83% 29.94 in 10.0 mi SE 16.1 mph - N/A   Clear
8:00 PM 75.2 °F 69.8 °F 83% 29.94 in 10.0 mi SSE 16.1 mph - N/A   Clear
8:20 PM 77.0 °F 69.8 °F 78% 29.94 in 10.0 mi SE 16.1 mph - N/A   Partly Cloudy
8:40 PM 77.0 °F 71.6 °F 83% 29.95 in 10.0 mi SE 16.1 mph - N/A   Mostly Cloudy
9:00 PM 77.0 °F 71.6 °F 83% 29.96 in 10.0 mi SSE 10.4 mph - N/A   Overcast
9:20 PM 77.0 °F 69.8 °F 78% 29.95 in 10.0 mi SE 10.4 mph - N/A   Overcast
9:40 PM 77.0 °F 69.8 °F 78% 29.95 in 10.0 mi SE 8.1 mph - N/A   Overcast
10:00 PM 77.0 °F 71.6 °F 83% 29.97 in 10.0 mi SE 16.1 mph - N/A   Mostly Cloudy
10:20 PM 77.0 °F 71.6 °F 83% 29.96 in 10.0 mi ESE 11.5 mph - N/A   Mostly Cloudy
10:40 PM 77.0 °F 71.6 °F 83% 29.97 in 10.0 mi ESE 17.3 mph - N/A   Overcast
11:00 PM 77.0 °F 71.6 °F 83% 29.98 in 10.0 mi ESE 18.4 mph - N/A   Overcast
11:20 PM 77.0 °F 71.6 °F 83% 29.98 in 10.0 mi ESE 17.3 mph - N/A   Overcast
11:40 PM 77.0 °F 71.6 °F 83% 29.98 in 10.0 mi ESE 16.1 mph - N/A   Overcast